This is the latest recevied weather packets stored in our database for station/object KG5MMT-12. If no packets are shown the sender has not sent any weather packets the latest 1 day(s).
| Time | Temp. | Humidity | Pressure | Rain* | Wind** | Luminosity | Snow |
|---|---|---|---|---|---|---|---|
| 1778045929 | 6.67° C | 71% | 0 hPa | 0.25 mm | 1.79 m/s, 275° | - | - |
| 1778045628 | 6.67° C | 71% | 0 hPa | 0.25 mm | 2.24 m/s, 285° | - | - |
| 1778045330 | 7.22° C | 69% | 0 hPa | 0.25 mm | 0.89 m/s, 265° | - | - |
| 1778045028 | 7.78° C | 69% | 0 hPa | 0.25 mm | 0.45 m/s, 56° | - | - |
| 1778044729 | 7.78° C | 67% | 0 hPa | 0.25 mm | 0.45 m/s, 300° | - | - |
| 1778044428 | 7.78° C | 66% | 0 hPa | 0.25 mm | 0.89 m/s, 286° | - | - |
| 1778044128 | 7.78° C | 67% | 0 hPa | 0.25 mm | 1.34 m/s, 223° | - | - |
| 1778043828 | 8.33° C | 68% | 0 hPa | 0 mm | 0.45 m/s, 299° | - | - |
| 1778043528 | 8.33° C | 68% | 0 hPa | 0 mm | 2.24 m/s, 358° | - | - |
| 1778043228 | 8.33° C | 68% | 0 hPa | 0 mm | 0.45 m/s, 209° | - | - |
| 1778042928 | 8.33° C | 67% | 0 hPa | 0.25 mm | 3.13 m/s, 240° | - | - |
| 1778042628 | 8.33° C | 67% | 0 hPa | 0.25 mm | 3.13 m/s, 288° | - | - |
| 1778042328 | 8.33° C | 67% | 0 hPa | 0.25 mm | 0.89 m/s, 282° | - | - |
| 1778042028 | 7.78° C | 67% | 0 hPa | 0.25 mm | 0.89 m/s, 240° | - | - |
| 1778041728 | 7.78° C | 68% | 0 hPa | 0.51 mm | 1.79 m/s, 268° | - | - |
| 1778041428 | 7.78° C | 69% | 0 hPa | 0.76 mm | 2.24 m/s, 247° | - | - |
| 1778041128 | 7.78° C | 71% | 0 hPa | 0.76 mm | 1.79 m/s, 248° | - | - |
| 1778040828 | 7.22° C | 72% | 0 hPa | 0.76 mm | 2.24 m/s, 246° | - | - |
| 1778040528 | 7.22° C | 73% | 0 hPa | 0.76 mm | 1.79 m/s, 233° | - | - |
| 1778040228 | 7.22° C | 75% | 0 hPa | 0.76 mm | 1.34 m/s, 244° | - | - |
| 1778039928 | 7.22° C | 76% | 0 hPa | 0.76 mm | 0.89 m/s, 232° | - | - |
| 1778039628 | 6.67° C | 78% | 0 hPa | 0.76 mm | 0.89 m/s, 251° | - | - |
| 1778039328 | 6.67° C | 79% | 0 hPa | 0.51 mm | 1.34 m/s, 271° | - | - |
| 1778039028 | 7.22° C | 80% | 0 hPa | 0.51 mm | 0.89 m/s, 278° | - | - |
| 1778038729 | 7.22° C | 79% | 0 hPa | 0.51 mm | 0 m/s | - | - |
* Rain latest hour (hover to see other rain measurements)
** Current wind speed in m/s (hover to see current wind gust speed)